Home > Weather > Rygge > Past weeks

Flag for Norway Past Weather in Rygge, Norway — Yesterday and Last 2 Weeks

Now
64 °F

Overcast.


Feels Like: 64 °F
Forecast: 55 / 67 °F
Wind: 2 mph from East

Location: Rygge

Current Time: Aug 26, 2016 at 9:00:08 AM

Latest Report: Aug 26, 2016 at 8:00 AM


Visibility: 9 mi

Pressure: 29.89 "Hg

Humidity: 98%

Dew Point: 63 °F

Location of RyggeLocation

Past Weather in Rygge — Graph

°F

Rygge Temperature Yesterday

Maximum temperature yesterday: 65 °F (at 2:00 PM)
Minimum temperature yesterday: 63 °F (at 5:00 AM)
Average temperature yesterday: 64 °F

High & Low Weather Summary for the Past Weeks

 TemperatureHumidityPressure
High74 °F (Aug 17, 4:00 PM)99% (Aug 26, 2:00 AM)30.27 "Hg (Aug 26, 2:00 AM)
Low46 °F (Aug 12, 2:00 AM)38% (Aug 17, 5:00 PM)29.63 "Hg (Aug 13, 2:00 AM)
Average61 °F78%29.99 "Hg
* Reported Aug 11 8:00 AM — Aug 26 8:00 AM, Rygge, Weather by CustomWeather, © 2016

Note: Actual official high and low records may vary slightly from our data, if they occured in-between our weather recording intervals... More about our weather records

Advertising

Rygge Weather History for the Previous 24 Hours

Scroll right to see more
 ConditionsComfort  
Time TempWeatherWind HumidityBarometerVisibility
8:00 AM
Fri, Aug 26
64 °FOvercast.2 mph98%29.89 "Hg9 mi
7:00 AM63 °FLight rain. Overcast.3 mph99%29.90 "Hg7 mi
6:00 AM63 °FRain. Fog.1 mph99%29.93 "Hg2 mi
5:00 AM63 °FOvercast.1 mph99%29.96 "Hg4 mi
4:00 AM63 °FRain. Dense fog.2 mph99%29.98 "Hg2 mi
3:00 AM63 °FLight rain. Dense fog.2 mph99%29.99 "Hg1 mi
2:00 AM62 °FFog.2 mph99%30.00 "Hg1 mi
1:00 AM63 °FFog.2 mph98%30.01 "Hg1 mi
12:00 AM63 °FOvercast.2 mph98%30.02 "Hg1 mi
11:00 PM
Thu, Aug 25
63 °FFog.No wind98%30.04 "Hg1 mi
10:00 PM63 °FFog.1 mph98%30.03 "Hg1 mi
9:00 PM63 °FFog.2 mph98%30.03 "Hg2 mi
8:00 PM64 °FPartly sunny.3 mph97%30.04 "Hg3 mi
7:00 PM64 °FRain showers. Fog.3 mph98%30.05 "Hg3 mi
6:00 PM64 °FLight rain. Fog.3 mph98%30.05 "Hg3 mi
5:00 PM64 °FLight rain. Fog.3 mph97%30.08 "Hg2 mi
4:00 PM64 °FLight rain. Fog.5 mph97%30.08 "Hg2 mi
3:00 PM65 °FLow clouds.5 mph95%30.08 "Hg3 mi
2:00 PM65 °FLow clouds.3 mph95%30.09 "Hg4 mi
1:00 PM64 °FLight rain. Fog.3 mph97%30.09 "Hg2 mi
12:00 PM63 °FLow clouds.6 mph95%30.11 "Hg3 mi
11:00 AM64 °FLow clouds.5 mph94%30.10 "Hg3 mi
10:00 AM64 °FFog.5 mph95%30.10 "Hg3 mi
9:00 AM64 °FFog.3 mph95%30.08 "Hg3 mi
Weather by CustomWeather, © 2016

See weather overviewHow to use our weather pages